FW7500 Weather Reports


Display with metric or nautical units.
time (UTC)temp
F
wind
direction
speed
MPH
gust
MPH
rain 1hr
in
rain 24hr
in
rain mn
in
humidity
%
barometer
mb
20260905094602 73 0 0.0 0.0 0.00 0.00 0.00 89 1014.7
20260905093104 72 0 0.0 0.0 0.00 0.00 0.00 90 1014.4
20260905091634 73 0 0.0 0.0 0.00 0.00 0.00 88 1014.4
20260905090057 74 0 0.0 0.0 0.00 0.00 0.00 86 1014.4
20260905084614 75 0 0.0 0.0 0.00 0.00 0.00 84 1014.6
20260905083100 76 0 0.0 0.0 0.00 0.00 0.00 83 1014.4
20260905081558 76 0 0.0 0.0 0.00 0.00 0.00 82 1014.2
20260905080052 76 0 0.0 0.0 0.00 0.00 0.00 82 1014.1
20260905074621 76 0 0.0 2.0 0.00 0.00 0.00 82 1014.0
20260905073058 76 360 1.0 4.0 0.00 0.00 0.00 82 1013.8
20260905071555 76 360 1.0 3.0 0.00 0.00 0.00 82 1014.0
20260905070108 76 0 1.0 3.0 0.00 0.00 0.00 81 1014.1
20260905064552 76 360 2.0 4.0 0.00 0.00 0.00 81 1014.3
20260905063056 76 360 1.0 3.0 0.00 0.00 0.00 82 1014.6
20260905061613 76 0 0.0 2.0 0.00 0.00 0.00 81 1014.8
20260905060054 75 0 0.0 2.0 0.00 0.00 0.00 85 1014.9
20260905054603 73 0 0.0 0.0 0.00 0.00 0.00 89 1015.2
20260905053056 73 0 0.0 0.0 0.00 0.00 0.00 89 1015.5
20260905051556 73 0 0.0 0.0 0.00 0.00 0.00 88 1015.6
20260905050052 73 0 0.0 0.0 0.00 0.00 0.00 88 1015.6
20260905044600 73 0 0.0 0.0 0.00 0.00 0.00 89 1015.7
20260905043105 74 0 0.0 0.0 0.00 0.00 0.00 88 1015.6
20260905041607 74 0 0.0 0.0 0.00 0.00 0.00 87 1015.8
20260905040103 73 0 0.0 0.0 0.00 0.00 0.00 88 1015.7
20260905034557 73 0 0.0 0.0 0.00 0.00 0.00 89 1015.6
20260905033111 73 0 0.0 0.0 0.00 0.00 0.00 88 1015.7
20260905031611 74 0 0.0 0.0 0.00 0.00 0.00 87 1015.7
20260905030058 74 0 0.0 0.0 0.00 0.00 0.00 87 1015.5
20260905024601 75 0 0.0 0.0 0.00 0.00 0.00 85 1015.5
20260905023104 75 0 0.0 0.0 0.00 0.00 0.00 84 1015.5
20260905021600 75 0 0.0 0.0 0.00 0.00 0.00 84 1015.5
20260905020058 75 0 0.0 0.0 0.00 0.00 0.00 85 1015.6
20260905014554 76 0 0.0 0.0 0.00 0.00 0.00 84 1015.5
20260905013101 76 0 0.0 0.0 0.00 0.00 0.00 83 1015.4
20260905011557 78 0 0.0 0.0 0.00 0.00 0.00 79 1015.3
20260905010106 78 0 0.0 0.0 0.00 0.00 0.00 79 1015.5
20260905004603 79 0 0.0 0.0 0.00 0.00 0.00 78 1015.2
20260905003137 79 0 0.0 0.0 0.00 0.00 0.00 74 1015.0
20260905001554 80 0 0.0 0.0 0.00 0.00 0.00 74 1015.0
20260904234602 84 0 0.0 0.0 0.00 0.00 0.00 67 1014.9
20260904233100 85 0 0.0 0.0 0.00 0.00 0.00 65 1014.8
20260904231559 86 0 0.0 0.0 0.00 0.00 0.00 61 1014.6
20260904230111 86 0 0.0 0.0 0.00 0.00 0.00 61 1014.4
20260904224611 86 0 0.0 0.0 0.00 0.00 0.00 63 1014.4
20260904223108 85 0 0.0 8.0 0.00 0.00 0.00 62 1014.9
20260904221554 84 360 7.0 21.0 0.00 0.00 0.00 61 1015.7
20260904220107 88 61 16.0 26.0 0.00 0.00 0.00 54 1016.6
20260904214600 95 360 2.0 8.0 0.00 0.00 0.00 48 1015.8
20260904213109 95 0 1.0 6.0 0.00 0.00 0.00 49 1015.6
20260904211558 95 276 4.0 9.0 0.00 0.00 0.00 49 1015.1
20260904210109 95 360 2.0 10.0 0.00 0.00 0.00 50 1015.3
20260904204606 96 275 2.0 8.0 0.00 0.00 0.00 48 1015.4
20260904203105 96 0 1.0 6.0 0.00 0.00 0.00 49 1015.4
20260904201557 95 310 3.0 8.0 0.00 0.00 0.00 49 1015.6
20260904200100 95 360 5.0 11.0 0.00 0.00 0.00 50 1015.5
20260904194553 95 275 5.0 9.0 0.00 0.00 0.00 50 1015.7
20260904193058 95 360 2.0 9.0 0.00 0.00 0.00 49 1015.9
20260904191621 96 28 0.0 12.0 0.00 0.00 0.00 51 1016.1
20260904190059 94 360 6.0 12.0 0.00 0.00 0.00 49 1016.3
20260904184559 94 302 4.0 12.0 0.00 0.00 0.00 51 1016.4
20260904183103 94 265 5.0 10.0 0.00 0.00 0.00 50 1016.5
20260904181601 94 276 4.0 12.0 0.00 0.00 0.00 50 1016.7
20260904180057 94 360 3.0 9.0 0.00 0.00 0.00 54 1017.0
20260904174551 94 360 6.0 12.0 0.00 0.00 0.00 51 1017.3
20260904173058 94 360 6.0 14.0 0.00 0.00 0.00 53 1017.4
20260904171600 94 360 4.0 10.0 0.00 0.00 0.00 53 1017.5
20260904170057 93 0 4.0 11.0 0.00 0.00 0.00 55 1017.5
20260904164601 93 165 1.0 8.0 0.00 0.00 0.00 57 1017.6
20260904163057 93 343 2.0 8.0 0.00 0.00 0.00 56 1017.7
20260904161556 92 360 4.0 8.0 0.00 0.00 0.00 56 1017.7
20260904160108 92 0 3.0 6.0 0.00 0.00 0.00 60 1017.7
20260904154557 91 269 1.0 7.0 0.00 0.00 0.00 61 1017.6
20260904153058 91 300 2.0 6.0 0.00 0.00 0.00 61 1017.6
20260904151557 90 0 2.0 8.0 0.00 0.00 0.00 63 1017.7
20260904150107 90 0 2.0 6.0 0.00 0.00 0.00 65 1017.7
20260904144603 89 360 4.0 9.0 0.00 0.00 0.00 64 1017.6
20260904143059 89 0 0.0 3.0 0.00 0.00 0.00 65 1017.6
20260904141605 87 0 0.0 5.0 0.00 0.00 0.00 71 1017.6
20260904140108 86 299 2.0 5.0 0.00 0.00 0.00 70 1017.6
20260904134612 85 263 2.0 6.0 0.00 0.00 0.00 71 1017.5
20260904133103 84 0 0.0 0.0 0.00 0.00 0.00 76 1017.8
20260904131555 83 0 0.0 0.0 0.00 0.00 0.00 77 1017.8
20260904124610 81 0 0.0 0.0 0.00 0.00 0.00 82 1017.7
20260904123055 79 0 0.0 0.0 0.00 0.00 0.00 86 1017.6
20260904121559 77 0 0.0 0.0 0.00 0.00 0.00 86 1017.4
20260904120058 75 0 0.0 0.0 0.00 0.00 0.00 89 1017.2
20260904114555 74 0 0.0 0.0 0.00 0.00 0.00 90 1017.0
20260904113055 74 0 0.0 0.0 0.00 0.00 0.00 91 1016.8
20260904111601 73 0 0.0 0.0 0.00 0.00 0.00 92 1016.7
20260904110057 74 0 0.0 0.0 0.00 0.00 0.00 92 1016.7
20260904104555 73 0 0.0 0.0 0.00 0.00 0.00 92 1016.5
20260904103055 73 0 0.0 0.0 0.00 0.00 0.00 92 1016.5
20260904101604 73 0 0.0 0.0 0.00 0.00 0.00 92 1016.6
20260904100108 73 0 0.0 0.0 0.00 0.00 0.00 93 1016.6